BAW30A OMDB-KJFK

Flight info

Callsign BAW30A
Flight time N/A
Altitude 34000
Route RIDAP M557 TUMAK L602 TASMI DCT ODALI UL852 NEGEM DCT TEGRI/N0486F360 DCT ABETI DCT SNU DCT RENKA DCT MAMOR DCT PETIX DCT TUSUK DCT ADKUV DCT BUB L608 DENUT L610 KOPUL Q60 OKSAW DCT FELCA DCT OFSOX DCT SLANY DCT MALOT/M084F380 DCT 54N020W 55N030W 55N040W 53N050W DCT RIKAL/N0487F380 N572A TOPPS DCT ENE PARCH4
Aircraft A35K/H-SDE2E3GHIJ3J4J5LM1ORWXY/LB1D1

Departure

Time 2026-04-24 20:08
Airport Dubai International Airport (OMDB)

Arrival

Time N/A
Airport John F. Kennedy International Airport (KJFK)
Time Latitude Longitude Altitude Speed Heading
2026-04-24 19:39 25.25968 55.34352 28 ft 0 kts 211°
2026-04-24 19:44 25.25972 55.34355 27 ft 0 kts 211°
2026-04-24 19:45 25.25968 55.34352 27 ft 0 kts 211°
2026-04-24 19:55 25.25969 55.34353 27 ft 1 kts 211°
2026-04-24 19:55 25.25989 55.34366 26 ft 4 kts 211°
2026-04-24 19:55 25.26013 55.34382 25 ft 4 kts 211°
2026-04-24 19:56 25.26031 55.34394 25 ft 4 kts 198°
2026-04-24 19:56 25.26055 55.34396 27 ft 4 kts 150°
2026-04-24 19:56 25.26072 55.34377 24 ft 4 kts 122°
2026-04-24 19:56 25.26087 55.34352 24 ft 4 kts 122°
2026-04-24 19:57 25.26094 55.34338 25 ft 0 kts 122°
2026-04-24 19:59 25.26073 55.34376 24 ft 15 kts 122°
2026-04-24 19:59 25.25999 55.34517 27 ft 12 kts 97°
2026-04-24 19:59 25.26049 55.34586 27 ft 15 kts 44°
2026-04-24 20:00 25.26140 55.34689 27 ft 22 kts 46°
2026-04-24 20:00 25.26274 55.34810 28 ft 28 kts 31°
2026-04-24 20:00 25.26330 55.34947 29 ft 21 kts 118°
2026-04-24 20:00 25.26255 55.35084 29 ft 21 kts 122°
2026-04-24 20:01 25.26177 55.35223 28 ft 22 kts 122°
2026-04-24 20:01 25.26109 55.35344 28 ft 22 kts 122°
2026-04-24 20:01 25.26028 55.35488 27 ft 23 kts 122°
2026-04-24 20:01 25.25944 55.35637 27 ft 23 kts 122°
2026-04-24 20:02 25.25888 55.35736 27 ft 23 kts 122°
2026-04-24 20:02 25.25775 55.35937 28 ft 23 kts 122°
2026-04-24 20:02 25.25690 55.36089 28 ft 23 kts 122°
2026-04-24 20:02 25.25604 55.36240 28 ft 23 kts 122°
2026-04-24 20:03 25.25517 55.36394 28 ft 24 kts 122°
2026-04-24 20:03 25.25430 55.36550 28 ft 24 kts 122°
2026-04-24 20:03 25.25341 55.36710 27 ft 24 kts 121°
2026-04-24 20:03 25.25252 55.36868 28 ft 24 kts 122°
2026-04-24 20:04 25.25163 55.37027 28 ft 24 kts 122°
2026-04-24 20:04 25.25075 55.37183 29 ft 24 kts 122°
2026-04-24 20:04 25.24986 55.37341 29 ft 24 kts 122°
2026-04-24 20:04 25.24897 55.37498 29 ft 24 kts 121°
2026-04-24 20:05 25.24807 55.37658 29 ft 25 kts 122°
2026-04-24 20:05 25.24719 55.37815 28 ft 20 kts 122°
2026-04-24 20:05 25.24665 55.37909 28 ft 13 kts 120°
2026-04-24 20:05 25.24679 55.37958 28 ft 4 kts 43°
2026-04-24 20:06 25.24681 55.37959 28 ft 0 kts 36°
2026-04-24 20:06 25.24681 55.37960 28 ft 1 kts 36°
2026-04-24 20:06 25.24753 55.38013 30 ft 22 kts 32°
2026-04-24 20:07 25.24823 55.37997 31 ft 19 kts 303°
2026-04-24 20:07 25.25080 55.37533 33 ft 96 kts 301°
2026-04-24 20:07 25.25541 55.36701 30 ft 156 kts 301°
2026-04-24 20:07 25.26193 55.35518 210 ft 192 kts 302°
2026-04-24 20:08 25.26879 55.34272 916 ft 194 kts 302°
2026-04-24 20:08 25.27604 55.32977 1482 ft 203 kts 302°
2026-04-24 20:08 25.28371 55.31604 1702 ft 219 kts 302°
2026-04-24 20:08 25.29178 55.30090 1837 ft 238 kts 297°
2026-04-24 20:09 25.29713 55.28294 2086 ft 253 kts 283°
2026-04-24 20:09 25.30043 55.26360 2544 ft 258 kts 281°
2026-04-24 20:09 25.30331 55.24394 3077 ft 260 kts 280°
2026-04-24 20:09 25.30608 55.22410 3609 ft 263 kts 280°
2026-04-24 20:10 25.30884 55.20400 4120 ft 266 kts 279°
2026-04-24 20:10 25.31160 55.18371 4678 ft 268 kts 279°
2026-04-24 20:10 25.31436 55.16324 5201 ft 270 kts 279°
2026-04-24 20:10 25.31712 55.14270 5753 ft 271 kts 278°
2026-04-24 20:11 25.31990 55.12203 6298 ft 272 kts 278°
2026-04-24 20:11 25.32268 55.10128 6795 ft 274 kts 278°
2026-04-24 20:11 25.32547 55.08036 7328 ft 276 kts 278°
2026-04-24 20:11 25.32829 55.05927 7870 ft 278 kts 278°
2026-04-24 20:12 25.33113 55.03800 8422 ft 280 kts 278°
2026-04-24 20:12 25.33399 55.01658 8994 ft 283 kts 278°
2026-04-24 20:12 25.33682 54.99531 9565 ft 285 kts 277°
2026-04-24 20:12 25.33972 54.97351 10105 ft 288 kts 277°
2026-04-24 20:13 25.34269 54.95112 10391 ft 302 kts 277°
2026-04-24 20:13 25.34580 54.92759 10613 ft 317 kts 277°
2026-04-24 20:13 25.35001 54.90315 10804 ft 332 kts 284°
2026-04-24 20:13 25.35671 54.87820 11025 ft 345 kts 287°
2026-04-24 20:14 25.36416 54.85246 11225 ft 358 kts 287°
2026-04-24 20:14 25.37187 54.82588 11434 ft 368 kts 287°
2026-04-24 20:14 25.37972 54.79868 11786 ft 374 kts 287°
2026-04-24 20:14 25.38763 54.77117 12193 ft 377 kts 287°
2026-04-24 20:15 25.39558 54.74343 12621 ft 380 kts 287°
2026-04-24 20:15 25.40359 54.71540 13012 ft 384 kts 286°
2026-04-24 20:15 25.41169 54.68714 13447 ft 386 kts 286°
2026-04-24 20:15 25.41978 54.65873 13858 ft 389 kts 286°
2026-04-24 20:16 25.42791 54.63014 14285 ft 390 kts 286°
2026-04-24 20:16 25.43608 54.60157 14744 ft 390 kts 287°
2026-04-24 20:16 25.44445 54.57306 15190 ft 390 kts 287°
2026-04-24 20:16 25.45291 54.54456 15644 ft 390 kts 287°
2026-04-24 20:17 25.46142 54.51599 16077 ft 391 kts 287°
2026-04-24 20:17 25.47850 54.45849 16808 ft 397 kts 287°
2026-04-24 20:17 25.48709 54.42943 17217 ft 397 kts 287°
2026-04-24 20:18 25.49288 54.40982 17515 ft 398 kts 287°
2026-04-24 20:18 25.50426 54.37122 18127 ft 398 kts 287°
2026-04-24 20:18 25.51282 54.34215 18521 ft 398 kts 287°
2026-04-24 20:18 25.52142 54.31290 18820 ft 401 kts 287°
2026-04-24 20:19 25.53009 54.28337 19124 ft 403 kts 287°
2026-04-24 20:19 25.53878 54.25378 19450 ft 405 kts 287°
2026-04-24 20:19 25.54753 54.22404 19789 ft 407 kts 287°
2026-04-24 20:19 25.55632 54.19417 20133 ft 409 kts 287°
2026-04-24 20:20 25.56512 54.16415 20482 ft 410 kts 287°
2026-04-24 20:20 25.57396 54.13399 20846 ft 412 kts 287°
2026-04-24 20:20 25.58281 54.10374 21199 ft 414 kts 287°
2026-04-24 20:20 25.59170 54.07333 21555 ft 416 kts 287°
2026-04-24 20:21 25.60059 54.04279 21908 ft 418 kts 287°
2026-04-24 20:21 25.60942 54.01200 22253 ft 420 kts 286°
2026-04-24 20:21 25.61823 53.98100 22618 ft 421 kts 286°
2026-04-24 20:21 25.62700 53.95006 23031 ft 422 kts 286°
2026-04-24 20:22 25.63581 53.91896 23366 ft 425 kts 286°
2026-04-24 20:22 25.64169 53.89824 23564 ft 426 kts 286°
2026-04-24 20:22 25.65059 53.86685 23861 ft 428 kts 286°
2026-04-24 20:22 25.65955 53.83530 24163 ft 430 kts 286°
2026-04-24 20:23 25.67148 53.79325 24580 ft 433 kts 286°
2026-04-24 20:23 25.67760 53.77168 24803 ft 434 kts 286°
2026-04-24 20:23 25.68667 53.73968 25137 ft 436 kts 286°
2026-04-24 20:23 25.69580 53.70753 25523 ft 437 kts 286°
2026-04-24 20:24 25.70489 53.67537 25862 ft 439 kts 285°
2026-04-24 20:24 25.71386 53.64341 26170 ft 441 kts 285°
2026-04-24 20:24 25.72299 53.61081 26498 ft 444 kts 285°
2026-04-24 20:24 25.73215 53.57809 26810 ft 446 kts 285°
2026-04-24 20:25 25.73837 53.55585 27028 ft 447 kts 285°
2026-04-24 20:25 25.75062 53.51210 27445 ft 450 kts 285°
2026-04-24 20:25 25.75996 53.47887 27774 ft 452 kts 285°
2026-04-24 20:25 25.76935 53.44548 28106 ft 454 kts 285°
2026-04-24 20:26 25.77875 53.41196 28394 ft 456 kts 285°
2026-04-24 20:26 25.78817 53.37829 28675 ft 458 kts 285°
2026-04-24 20:26 25.79764 53.34445 28963 ft 460 kts 285°
2026-04-24 20:26 25.80716 53.31041 29244 ft 462 kts 285°
2026-04-24 20:27 25.81671 53.27620 29503 ft 464 kts 285°
2026-04-24 20:27 25.82629 53.24190 29789 ft 465 kts 285°
2026-04-24 20:27 25.83589 53.20760 30094 ft 466 kts 285°
2026-04-24 20:27 25.84739 53.17383 30289 ft 469 kts 290°
2026-04-24 20:28 25.86029 53.14055 30540 ft 469 kts 291°
2026-04-24 20:28 25.87351 53.10751 30874 ft 468 kts 291°
2026-04-24 20:28 25.88691 53.07459 31185 ft 467 kts 292°
2026-04-24 20:28 25.90035 53.04177 31500 ft 466 kts 292°
2026-04-24 20:29 25.90920 53.02015 31705 ft 465 kts 292°
2026-04-24 20:29 25.92705 52.97648 32143 ft 462 kts 291°
2026-04-24 20:29 25.94011 52.94443 32453 ft 461 kts 291°
2026-04-24 20:29 25.95328 52.91201 32713 ft 460 kts 291°
2026-04-24 20:30 25.96642 52.87959 32970 ft 460 kts 291°
2026-04-24 20:30 25.97952 52.84721 33234 ft 459 kts 291°
2026-04-24 20:30 25.99260 52.81487 33487 ft 458 kts 291°
2026-04-24 20:30 26.00564 52.78260 33729 ft 457 kts 291°
2026-04-24 20:31 26.01867 52.75033 33897 ft 458 kts 291°
2026-04-24 20:31 26.03212 52.71795 33903 ft 463 kts 292°
2026-04-24 20:31 26.06117 52.65360 33903 ft 465 kts 294°
2026-04-24 20:32 26.09067 52.58956 33907 ft 465 kts 294°
2026-04-24 20:32 26.11987 52.52530 33905 ft 465 kts 293°
2026-04-24 20:33 26.14892 52.46103 33900 ft 465 kts 293°
2026-04-24 20:33 26.17785 52.39673 33896 ft 464 kts 293°
2026-04-24 20:34 26.20671 52.33252 33906 ft 463 kts 293°
2026-04-24 20:34 26.23523 52.26869 33907 ft 463 kts 292°
2026-04-24 20:35 26.26312 52.20408 33911 ft 463 kts 292°
2026-04-24 20:35 26.29085 52.13940 33912 ft 463 kts 292°
2026-04-24 20:36 26.31870 52.07469 33919 ft 462 kts 292°
2026-04-24 20:36 26.34653 52.01023 33914 ft 461 kts 292°
2026-04-24 20:37 26.37382 51.94557 33915 ft 459 kts 289°
2026-04-24 20:37 26.39706 51.87920 33914 ft 459 kts 288°
2026-04-24 20:38 26.41955 51.81251 33916 ft 459 kts 288°
2026-04-24 20:38 26.44185 51.74569 33916 ft 460 kts 288°
2026-04-24 20:39 26.46409 51.67903 33921 ft 457 kts 287°
2026-04-24 20:39 26.48629 51.61266 33919 ft 456 kts 287°
2026-04-24 20:40 26.50836 51.54631 33918 ft 456 kts 287°
2026-04-24 20:40 26.53044 51.47976 33921 ft 457 kts 287°
2026-04-24 20:41 26.55238 51.41356 33925 ft 457 kts 287°
2026-04-24 20:41 26.57448 51.34684 33919 ft 457 kts 287°
2026-04-24 20:42 26.59646 51.28042 33922 ft 456 kts 287°
2026-04-24 20:42 26.61850 51.21387 33922 ft 456 kts 287°
2026-04-24 20:43 26.64052 51.14731 33922 ft 456 kts 287°
2026-04-24 20:43 26.66250 51.08074 33922 ft 456 kts 287°
2026-04-24 20:44 26.68444 51.01416 33925 ft 456 kts 287°
2026-04-24 20:44 26.70613 50.94745 33925 ft 457 kts 287°
2026-04-24 20:45 26.72727 50.88094 33925 ft 457 kts 286°
2026-04-24 20:45 26.74856 50.81396 33925 ft 458 kts 286°
2026-04-24 20:46 26.76992 50.74686 33927 ft 458 kts 286°
2026-04-24 20:46 26.79199 50.67992 33927 ft 460 kts 290°
2026-04-24 20:47 26.82528 50.61829 33933 ft 467 kts 302°
2026-04-24 20:47 26.86573 50.56110 33930 ft 469 kts 304°
2026-04-24 20:48 26.90731 50.50465 33936 ft 470 kts 304°
2026-04-24 20:48 26.95016 50.44914 33939 ft 472 kts 308°
2026-04-24 20:49 26.99592 50.39611 33937 ft 473 kts 309°
2026-04-24 20:49 27.04171 50.34318 33938 ft 472 kts 308°
2026-04-24 20:50 27.08682 50.28969 33939 ft 471 kts 308°
2026-04-24 20:50 27.13139 50.23573 33938 ft 471 kts 307°
2026-04-24 20:51 27.17927 50.18539 33943 ft 480 kts 316°
2026-04-24 20:51 27.23270 50.13990 33941 ft 483 kts 318°
2026-04-24 20:52 27.28698 50.09531 33939 ft 484 kts 318°
2026-04-24 20:52 27.34136 50.05068 33938 ft 484 kts 318°
2026-04-24 20:53 27.39532 50.00555 33941 ft 482 kts 317°
2026-04-24 20:53 27.44805 49.95887 33941 ft 482 kts 316°
2026-04-24 20:54 27.50058 49.91199 33952 ft 482 kts 316°
2026-04-24 20:54 27.55353 49.86506 33938 ft 485 kts 316°
2026-04-24 20:55 27.60642 49.81838 33939 ft 485 kts 316°
2026-04-24 20:55 27.65958 49.77146 33939 ft 485 kts 316°
2026-04-24 20:56 27.71264 49.72459 33942 ft 483 kts 316°
2026-04-24 20:56 27.76550 49.67778 33939 ft 482 kts 316°
2026-04-24 20:57 27.81822 49.63095 33939 ft 482 kts 315°
2026-04-24 20:57 27.87075 49.58395 33947 ft 482 kts 316°
2026-04-24 20:58 27.92337 49.53683 33943 ft 482 kts 316°
2026-04-24 20:58 27.97595 49.48978 33955 ft 481 kts 316°
2026-04-24 20:59 28.02844 49.44276 33952 ft 481 kts 316°
2026-04-24 20:59 28.08084 49.39533 33949 ft 482 kts 315°
2026-04-24 21:00 28.13306 49.34749 33953 ft 483 kts 315°
2026-04-24 21:00 28.18496 49.29992 33968 ft 483 kts 315°
2026-04-24 21:01 28.23727 49.25200 33956 ft 485 kts 315°
2026-04-24 21:01 28.28980 49.20393 33956 ft 485 kts 315°
2026-04-24 21:02 28.34230 49.15582 33958 ft 485 kts 315°
2026-04-24 21:02 28.39515 49.10808 33959 ft 488 kts 319°
2026-04-24 21:03 28.45109 49.06401 33959 ft 490 kts 319°
2026-04-24 21:03 28.50772 49.02055 33965 ft 491 kts 320°
2026-04-24 21:04 28.56442 48.97721 33958 ft 490 kts 320°
2026-04-24 21:04 28.62108 48.93377 33958 ft 490 kts 319°
2026-04-24 21:05 28.67727 48.89053 34180 ft 490 kts 319°
2026-04-24 21:05 28.70547 48.86883 34467 ft 487 kts 319°
2026-04-24 21:05 28.73346 48.84730 34772 ft 484 kts 318°
2026-04-24 21:06 28.76129 48.82586 34996 ft 482 kts 318°
2026-04-24 21:06 28.78909 48.80440 35197 ft 481 kts 318°
2026-04-24 21:06 28.81681 48.78299 35351 ft 481 kts 318°
2026-04-24 21:06 28.84456 48.76168 35512 ft 481 kts 318°
2026-04-24 21:07 28.87230 48.74044 35705 ft 480 kts 317°
2026-04-24 21:07 28.90003 48.71923 35872 ft 479 kts 317°
2026-04-24 21:07 28.95540 48.67677 35956 ft 479 kts 317°
2026-04-24 21:08 29.00134 48.64147 35952 ft 479 kts 317°
2026-04-24 21:08 29.05670 48.59888 35952 ft 480 kts 317°
2026-04-24 21:09 29.11215 48.55618 35958 ft 480 kts 317°
2026-04-24 21:09 29.16750 48.51350 35949 ft 480 kts 317°
2026-04-24 21:10 29.22286 48.47076 35959 ft 480 kts 316°
2026-04-24 21:10 29.27779 48.42830 35950 ft 480 kts 316°
2026-04-24 21:11 29.33319 48.38539 35958 ft 481 kts 316°
2026-04-24 21:11 29.38860 48.34245 35967 ft 481 kts 316°
2026-04-24 21:12 29.44406 48.29946 35959 ft 481 kts 316°
2026-04-24 21:12 29.50193 48.25963 35953 ft 488 kts 321°
2026-04-24 21:13 29.56140 48.22201 35961 ft 488 kts 321°
2026-04-24 21:13 29.62080 48.18386 35953 ft 490 kts 320°
2026-04-24 21:14 29.68005 48.14503 35946 ft 490 kts 320°
2026-04-24 21:14 29.73912 48.10599 35951 ft 490 kts 319°
2026-04-24 21:15 29.79822 48.06685 35947 ft 490 kts 319°
2026-04-24 21:15 29.85733 48.02766 35943 ft 490 kts 319°
2026-04-24 21:16 29.91639 47.98848 35944 ft 491 kts 319°
2026-04-24 21:16 29.97523 47.94938 35941 ft 491 kts 319°
2026-04-24 21:17 30.03332 47.90862 35941 ft 484 kts 315°
2026-04-24 21:17 30.08868 47.86460 35937 ft 482 kts 314°
2026-04-24 21:18 30.14352 47.82001 35938 ft 482 kts 314°
2026-04-24 21:18 30.19835 47.77523 35939 ft 483 kts 314°
2026-04-24 21:19 30.25331 47.73040 35934 ft 483 kts 313°
2026-04-24 21:19 30.30828 47.68559 35935 ft 483 kts 313°
2026-04-24 21:20 30.39067 47.61832 35936 ft 483 kts 313°
2026-04-24 21:21 30.44545 47.57353 35934 ft 482 kts 313°
2026-04-24 21:21 30.50028 47.52857 35934 ft 483 kts 313°
2026-04-24 21:22 30.55522 47.48349 35939 ft 483 kts 313°
2026-04-24 21:22 30.60994 47.43856 35934 ft 481 kts 313°
2026-04-24 21:23 30.66454 47.39363 35933 ft 481 kts 313°
2026-04-24 21:23 30.71921 47.34855 35930 ft 483 kts 313°
2026-04-24 21:24 30.77375 47.30353 35927 ft 484 kts 313°
2026-04-24 21:24 30.82871 47.25813 35925 ft 484 kts 313°
2026-04-24 21:25 30.88355 47.21279 35925 ft 483 kts 313°
2026-04-24 21:25 30.93832 47.16742 35922 ft 483 kts 313°
2026-04-24 21:26 30.99310 47.12191 35925 ft 484 kts 313°
2026-04-24 21:26 31.04791 47.07638 35924 ft 483 kts 313°
2026-04-24 21:27 31.10256 47.03094 35922 ft 482 kts 313°
2026-04-24 21:27 31.15720 46.98539 35943 ft 482 kts 313°
2026-04-24 21:28 31.21131 46.94023 35921 ft 481 kts 313°
2026-04-24 21:28 31.26573 46.89472 35925 ft 481 kts 313°
2026-04-24 21:29 31.32016 46.84915 35934 ft 481 kts 313°
2026-04-24 21:29 31.37448 46.80365 35929 ft 479 kts 313°
2026-04-24 21:30 31.42859 46.75823 35930 ft 478 kts 313°
2026-04-24 21:30 31.48265 46.71274 35932 ft 478 kts 314°
2026-04-24 21:31 31.53676 46.66717 35919 ft 478 kts 314°
2026-04-24 21:31 31.59080 46.62162 35935 ft 478 kts 314°
2026-04-24 21:32 31.64474 46.57608 35933 ft 477 kts 314°
2026-04-24 21:32 31.69829 46.53079 35932 ft 478 kts 314°
2026-04-24 21:33 31.75231 46.48503 35957 ft 478 kts 314°
2026-04-24 21:33 31.80619 46.43936 35933 ft 477 kts 314°
2026-04-24 21:34 31.85996 46.39369 35930 ft 477 kts 314°
2026-04-24 21:34 31.91377 46.34791 35944 ft 477 kts 314°
2026-04-24 21:35 31.96753 46.30211 35933 ft 477 kts 314°
2026-04-24 21:35 32.02124 46.25629 35936 ft 476 kts 314°
2026-04-24 21:36 32.07491 46.21044 35940 ft 476 kts 314°
2026-04-24 21:36 32.12852 46.16458 35931 ft 476 kts 314°
2026-04-24 21:37 32.18216 46.11860 35934 ft 477 kts 314°
2026-04-24 21:37 32.23587 46.07250 35933 ft 477 kts 314°
2026-04-24 21:38 32.28955 46.02637 35939 ft 477 kts 314°
2026-04-24 21:38 32.34324 45.98016 35947 ft 477 kts 314°
2026-04-24 21:39 32.39689 45.93391 35942 ft 478 kts 314°
2026-04-24 21:39 32.45032 45.88776 35941 ft 479 kts 314°
2026-04-24 21:40 32.50412 45.84123 35943 ft 479 kts 314°
2026-04-24 21:40 32.55789 45.79466 35941 ft 479 kts 314°
2026-04-24 21:41 32.61172 45.74800 35935 ft 479 kts 314°
2026-04-24 21:41 32.66559 45.70120 35943 ft 480 kts 314°
2026-04-24 21:42 32.71950 45.65431 35934 ft 480 kts 314°
2026-04-24 21:42 32.77337 45.60738 35934 ft 480 kts 314°
2026-04-24 21:43 32.82724 45.56038 35942 ft 480 kts 314°
2026-04-24 21:43 32.88111 45.51329 35941 ft 481 kts 314°
2026-04-24 21:44 32.93465 45.46644 35947 ft 480 kts 314°
2026-04-24 21:44 32.98840 45.41933 35942 ft 480 kts 314°
2026-04-24 21:45 33.04213 45.37215 35948 ft 480 kts 314°
2026-04-24 21:45 33.09601 45.32473 35943 ft 481 kts 314°
2026-04-24 21:46 33.14996 45.27723 35938 ft 482 kts 314°
2026-04-24 21:46 33.20383 45.22971 35938 ft 481 kts 314°
2026-04-24 21:47 33.25758 45.18224 35935 ft 480 kts 314°
2026-04-24 21:47 33.31140 45.13459 35949 ft 482 kts 315°
2026-04-24 21:48 33.36533 45.08679 35942 ft 482 kts 315°
2026-04-24 21:48 33.41884 45.03930 35941 ft 482 kts 315°
2026-04-24 21:49 33.47269 44.99143 35931 ft 483 kts 315°
2026-04-24 21:49 33.52668 44.94333 35926 ft 484 kts 315°
2026-04-24 21:50 33.58084 44.89503 35922 ft 485 kts 315°
2026-04-24 21:50 33.63491 44.84674 35915 ft 485 kts 315°
2026-04-24 21:51 33.68896 44.79839 35922 ft 484 kts 315°
2026-04-24 21:51 33.74298 44.74996 35914 ft 484 kts 315°
2026-04-24 21:52 33.78789 44.70965 35913 ft 485 kts 315°
2026-04-24 21:52 33.84192 44.66108 35910 ft 485 kts 315°
2026-04-24 21:53 33.89593 44.61246 35941 ft 485 kts 315°
2026-04-24 21:53 33.94984 44.56386 35911 ft 484 kts 315°
2026-04-24 21:54 34.00375 44.51518 35908 ft 484 kts 315°
2026-04-24 21:54 34.05759 44.46647 35912 ft 483 kts 315°
2026-04-24 21:55 34.11102 44.41805 35936 ft 483 kts 315°
2026-04-24 21:55 34.16467 44.36937 35907 ft 481 kts 315°
2026-04-24 21:56 34.21819 44.32070 35905 ft 481 kts 315°
2026-04-24 21:56 34.27162 44.27203 35903 ft 481 kts 315°
2026-04-24 21:57 34.32508 44.22326 35933 ft 481 kts 314°
2026-04-24 21:57 34.37849 44.17449 35909 ft 480 kts 314°
2026-04-24 21:58 34.43184 44.12568 35901 ft 480 kts 314°
2026-04-24 21:58 34.48504 44.07690 35903 ft 480 kts 314°
2026-04-24 21:59 34.53791 44.02836 35914 ft 480 kts 314°